LB9GJ Weather Reports


time (UTC)temp
C
wind
direction
speed
KPH
gust
KPH
rain 1hr
cm
rain 24hr
cm
rain mn
cm
humidity
%
barometer
mb
20260506000003 -5 293 11.3 0.0 0.00 0.00 0.00 59 1010.6
20260505234502 -5 293 9.7 0.0 0.00 0.00 0.00 59 1010.6
20260505233001 -5 293 11.3 0.0 0.00 0.00 0.00 59 1010.6
20260505231502 -5 293 9.7 0.0 0.00 0.00 0.00 59 1010.6
20260505230002 -5 293 11.3 0.0 0.00 0.00 0.00 59 1010.6
20260505224502 -5 290 9.7 0.0 0.00 0.00 0.00 59 1010.6
20260505223002 -5 290 6.4 0.0 0.00 0.00 0.00 59 1010.6
20260505221502 -5 290 4.8 0.0 0.00 0.00 0.00 59 1010.6
20260505220002 -5 290 4.8 0.0 0.00 0.00 0.00 59 1010.6
20260505214501 -6 290 0.0 0.0 0.00 0.00 0.00 59 1010.6
20260505213002 -5 290 3.2 0.0 0.00 0.00 0.00 59 1010.6
20260505211502 -5 290 9.7 0.0 0.00 0.00 0.00 59 1010.6
20260505210002 -5 288 3.2 0.0 0.00 0.00 0.00 59 1010.6
20260505204502 -4 288 11.3 0.0 0.00 0.00 0.00 59 1010.6
20260505203003 -4 288 11.3 0.0 0.00 0.00 0.00 59 1010.6
20260505201502 -4 284 0.0 0.0 0.00 0.00 0.00 59 1010.6
20260505200002 -4 284 1.6 0.0 0.00 0.00 0.00 59 1010.6
20260505194501 -4 284 0.0 0.0 0.00 0.00 0.00 59 1010.6
20260505193003 -3 284 1.6 0.0 0.00 0.00 0.00 59 1010.6
20260505191501 -2 284 9.7 0.0 0.00 0.00 0.00 59 1010.6
20260505190003 -2 284 6.4 0.0 0.00 0.00 0.00 59 1010.6
20260505184501 -2 284 11.3 0.0 0.00 0.00 0.00 59 1010.6
20260505183002 -1 286 11.3 0.0 0.00 0.00 0.00 59 1010.6
20260505181502 0 286 11.3 0.0 0.00 0.00 0.00 59 1010.6
20260505180002 -1 286 1.6 0.0 0.00 0.00 0.00 59 1010.6
20260505174501 0 256 12.9 0.0 0.00 0.00 0.00 59 1010.6
20260505173002 0 256 9.7 0.0 0.00 0.00 0.00 59 1010.6
20260505171502 0 256 3.2 0.0 0.00 0.00 0.00 59 1010.6
20260505170002 1 256 9.7 0.0 0.00 0.00 0.00 59 1010.6
20260505164501 0 256 11.3 0.0 0.00 0.00 0.00 59 1010.6
20260505163002 0 266 6.4 0.0 0.00 0.00 0.00 59 1010.6
20260505161501 2 266 8.0 0.0 0.00 0.00 0.00 59 1010.6
20260505153002 0 277 14.5 0.0 0.00 0.00 0.00 59 1010.6
20260505151501 0 277 17.7 0.0 0.00 0.00 0.00 59 1010.6
20260505124501 7 296 12.9 0.0 0.00 0.00 0.00 59 1010.6
20260505123002 9 296 14.5 0.0 0.00 0.00 0.00 59 1010.6
20260505121502 9 297 14.5 0.0 0.00 0.00 0.00 59 1010.6
20260505120002 9 297 11.3 0.0 0.00 0.00 0.00 59 1010.6
20260505114501 8 297 12.9 0.0 0.00 0.00 0.00 59 1010.6
20260505113002 8 297 12.9 0.0 0.00 0.00 0.00 59 1010.6
20260505111501 11 297 12.9 0.0 0.00 0.00 0.00 59 1010.6
20260505101501 8 297 12.9 0.0 0.00 0.00 0.00 59 1010.6
20260505100002 9 297 11.3 0.0 0.00 0.00 0.00 59 1010.6
20260505094501 8 297 14.5 0.0 0.00 0.00 0.00 59 1010.6
20260505093002 10 297 12.9 0.0 0.00 0.00 0.00 59 1010.6
20260505091501 7 297 11.3 0.0 0.00 0.00 0.00 59 1010.6
20260505090002 7 297 12.9 0.0 0.00 0.00 0.00 59 1010.6
20260505084502 7 297 12.9 0.0 0.00 0.00 0.00 59 1010.6
20260505083003 6 296 14.5 0.0 0.00 0.00 0.00 59 1010.6
20260505081501 5 296 14.5 0.0 0.00 0.00 0.00 59 1010.6
20260505080002 6 296 11.3 0.0 0.00 0.00 0.00 59 1010.6
20260505074502 4 296 12.9 0.0 0.00 0.00 0.00 59 1010.6
20260505073002 5 296 12.9 0.0 0.00 0.00 0.00 59 1010.6
20260505071502 2 296 12.9 0.0 0.00 0.00 0.00 59 1010.6
20260505070002 2 296 14.5 0.0 0.00 0.00 0.00 59 1010.6
20260505064501 2 296 12.9 0.0 0.00 0.00 0.00 59 1010.6
20260505063002 1 290 12.9 0.0 0.00 0.00 0.00 59 1010.6
20260505061502 0 290 12.9 0.0 0.00 0.00 0.00 59 1010.6
20260505060002 0 292 12.9 0.0 0.00 0.00 0.00 59 1010.6
20260505054502 -1 292 11.3 0.0 0.00 0.00 0.00 59 1010.6
20260505053002 -1 292 11.3 0.0 0.00 0.00 0.00 59 1010.6
20260505051502 -2 292 11.3 0.0 0.00 0.00 0.00 59 1010.6
20260505041502 -6 296 4.8 0.0 0.00 0.00 0.00 59 1010.6
20260505040002 -6 296 3.2 0.0 0.00 0.00 0.00 59 1010.6
20260505034502 -7 296 6.4 0.0 0.00 0.00 0.00 59 1010.6
20260505033002 -6 296 1.6 0.0 0.00 0.00 0.00 59 1010.6
20260505031502 -6 296 1.6 0.0 0.00 0.00 0.00 59 1010.6
20260505030002 -6 297 0.0 0.0 0.00 0.00 0.00 59 1010.6
20260505024502 -5 297 12.9 0.0 0.00 0.00 0.00 59 1010.6
20260505023002 -5 297 12.9 0.0 0.00 0.00 0.00 59 1010.6
20260505021501 -5 301 12.9 0.0 0.00 0.00 0.00 59 1010.6
20260505020002 -5 301 12.9 0.0 0.00 0.00 0.00 59 1010.6
20260505014502 -5 301 11.3 0.0 0.00 0.00 0.00 59 1010.6
20260505013002 -5 301 12.9 0.0 0.00 0.00 0.00 59 1010.6
20260505011501 -5 301 11.3 0.0 0.00 0.00 0.00 59 1010.6
20260505010002 -5 301 11.3 0.0 0.00 0.00 0.00 59 1010.6
20260505004501 -5 301 11.3 0.0 0.00 0.00 0.00 59 1010.6
20260505003002 -5 300 11.3 0.0 0.00 0.00 0.00 59 1010.6
20260505001502 -5 300 11.3 0.0 0.00 0.00 0.00 59 1010.6